STARLINK-1319, 45379

Orbit data source: Space-Track

STARLINK-1319, 45379 is a payload satellite owned by SpaceX/Seattle (US) in LEO that was launched on Wed, 18 Mar 2020 UTC via an FALCON 9 launch vehicle from the Air Force Eastern Test Range (AFETR). Payload-class satellites include a variety of spacecraft equipped with specific instruments for various scientific and technological missions. These include communications satellites like Starlink; space stations such as the ISS; scientific satellites like the Hubble; Earth observation satellites from companies like Planet Labs, Umbra, and HawkEye 360; GPS; miniature CubeSats for education and research; and military/defense satellites.

Loading next visibility...
Identifier
45379, 2020-019V
Orbit
LEO
Country
Flag of USUS
Related business
Manufacturer
SpaceX/Seattle
Mission
Partially operational Commercial Communications
Bus & Motor
STARLINK, Unknown motor
Mass
260 kg wet, ~248 kg dry
Launch date (UTC)
2020-03-18 (6 years ago)
Launch vehicle
FALCON 9
Launch site
Air Force Eastern Test Range (AFETR)
Object type
Payload
Rocket body
Debris
Shape & HBR
Box + 1 Pan, 10.1 m
Radar Cross Section
13.562 m², Large (>1 m²)

Expand to show TLE details & history
Last TLE update: 8 hours ago

TLE from 8 hours ago
0 STARLINK-1319
1 45379U 20019V   26169.96279853  .00084782  00000-0  45883-3 0  9993
2 45379  53.0373 347.5920 0001285 119.5901 240.5247 15.79389899346187
Epoch: 2026-06-18T23:06Z
TLE epoch observation values (Epoch: 2026-06-18T23:06:25.792Z)
Latitude
-0.0001°
Longitude
93.78586°
Altitude
333.498 km
Speed
7.709 km/s
True Right ascension
23h 10m 22s
True Declination
0° 00' 00"
Sunlit
Object was in daylight at epoch
Visualization orbit readout
Latitude
Unknown
Longitude
Unknown
Altitude
Unknown
Speed
Unknown
Apparent Right ascension
Unknown
Apparent Declination
Unknown
Sunlit
N/A
Visualization observer readout
Local Sidereal Time
18:00:48
Azimuth
Unknown
Elevation
Unknown
Doppler factor
Unknown
Orbital elements
Apogee altitude
333.312 km
Perigee altitude
331.588 km
Semi-major axis
6,710.587 km
Eccentricity
0.00013
Inclination
53.0373°
RAAN
347.592°
Arg. of periapsis
119.5901°
True anomaly
240.51188°
Mean anomaly
240.5247°
Eccentric anomaly
240.51829°
Mean motion
3.94823 °/min
Orbital period
91.18 mins
BSTAR
0.00045883
Loading maneuver chart data...
Computing Atmospheric mass density...

Documentation

Showing up to 5 results
|